Weather History for KRAS - March, 2013

Change the Weather History Date:

Thursday, March 7, 2013

  Actual Average (KCRP) Record (KCRP)
Temperature  
Mean Temperature 64 °F 64 °F  
Max Temperature 70 °F 74 °F 90 °F (1961)
Min Temperature 58 °F 55 °F 28 °F (1989)
Degree Days  
Heating Degree Days 1 4  
Month to date heating degree days 28  
Since 1 July heating degree days 828  
Cooling Degree Days 0 3  
Month to date cooling degree days 20  
Year to date cooling degree days 96  
Growing Degree Days 14 (Base 50)    
Moisture  
Dew Point 57 °F    
Average Humidity 78    
Maximum Humidity 89    
Minimum Humidity 69    
Precipitation  
Precipitation 0.00 in 0.06 in 2.76 in (1995)
Month to date precipitation 0.49  
Year to date precipitation 3.96  
Snow  
Snow 0.00 in - - ()
Month to date snowfall  
Since 1 July snowfall  
Snow Depth -    
Sea Level Pressure  
Sea Level Pressure 30.17 in    
Wind  
Wind Speed 9 mph (ESE)    
Max Wind Speed 16 mph    
Max Gust Speed 21 mph    
Visibility 10 miles    
Events      
T = Trace of Precipitation, MM = Missing Value Source: NWS Daily Summary

Daily Weather History Graph

Daily Weather History Graph

Search for Another Location

Airport or City:

Trip Planner

Search our weather history database for the weather conditions in past years. The results will help you decide how hot, cold, wet, or windy it might be!

Date:

Astronomy

Mar. 07, 2013 Rise Set
Actual Time 6:46 AM CST 6:32 PM CST
Civil Twilight 6:22 AM CST 6:56 PM CST
Nautical Twilight 5:55 AM CST 7:23 PM CST
Astronomical Twilight 5:28 AM CST 7:50 PM CST
Moon 3:28 AM CST (3/7) 2:38 PM CST (3/7)
Length of Visible Light 12h 33m
Length of Day
11h 46m
Waning Crescent, 20% of the Moon is Illuminated
Mar 7
Waning Crescent
Mar 11
New
Mar 19
First Quarter
Mar 27
Full
Apr 2
Last Quarter

Hourly Weather History & Observations

Time (CST) Temp. Dew Point Humidity Pressure Visibility Wind Dir Wind Speed Gust Speed Precip Events Conditions
12:15 AM 58.6 °F 50.2 °F 73% 30.23 in 10.0 mi SE 9.2 mph - N/A   Scattered Clouds
12:35 AM 59.2 °F 50.9 °F 74% 30.23 in 10.0 mi SE 9.2 mph - N/A   Scattered Clouds
12:55 AM 59.9 °F 50.9 °F 72% 30.23 in 10.0 mi SE 8.1 mph - N/A   Scattered Clouds
1:15 AM 58.8 °F 50.5 °F 74% 30.21 in 10.0 mi SE 8.1 mph - N/A   Scattered Clouds
1:35 AM 59.2 °F 50.4 °F 73% 30.21 in 10.0 mi SE 9.2 mph - N/A   Clear
1:55 AM 59.9 °F 50.9 °F 72% 30.19 in 10.0 mi SE 9.2 mph - N/A   Clear
2:15 AM 59.9 °F 51.4 °F 74% 30.18 in 10.0 mi SE 8.1 mph - N/A   Clear
2:35 AM 59.9 °F 51.3 °F 73% 30.18 in 10.0 mi SE 6.9 mph - N/A   Clear
2:55 AM 60.1 °F 52.0 °F 75% 30.17 in 10.0 mi SE 6.9 mph - N/A   Clear
3:15 AM 60.1 °F 52.2 °F 75% 30.16 in 10.0 mi SE 8.1 mph - N/A   Clear
3:35 AM 60.1 °F 52.7 °F 77% 30.15 in 10.0 mi SE 9.2 mph - N/A   Clear
3:55 AM 60.6 °F 52.9 °F 76% 30.14 in 10.0 mi SE 6.9 mph - N/A   Clear
4:15 AM 60.3 °F 53.1 °F 77% 30.14 in 10.0 mi SE 6.9 mph - N/A   Clear
4:35 AM 60.4 °F 53.4 °F 78% 30.14 in 10.0 mi SE 5.8 mph - N/A   Clear
4:55 AM 60.4 °F 54.7 °F 81% 30.14 in 10.0 mi SE 6.9 mph - N/A   Clear
5:15 AM 60.4 °F 54.5 °F 81% 30.15 in 10.0 mi SE 8.1 mph - N/A   Clear
5:35 AM 60.8 °F 55.2 °F 82% 30.15 in 10.0 mi ESE 6.9 mph - N/A   Clear
5:55 AM 61.0 °F 55.4 °F 82% 30.16 in 10.0 mi SE 6.9 mph - N/A   Clear
6:15 AM 60.8 °F 55.9 °F 84% 30.16 in 10.0 mi SE 6.9 mph - N/A   Clear
6:35 AM 60.8 °F 56.3 °F 85% 30.17 in 10.0 mi ESE 5.8 mph - N/A   Clear
6:55 AM 60.8 °F 56.5 °F 86% 30.17 in 10.0 mi SE 5.8 mph - N/A   Clear
7:15 AM 60.8 °F 56.3 °F 85% 30.17 in 10.0 mi ESE 4.6 mph - N/A   Clear
7:35 AM 61.9 °F 57.2 °F 85% 30.18 in 10.0 mi ESE 5.8 mph - N/A   Clear
7:55 AM 63.1 °F 57.6 °F 82% 30.18 in 10.0 mi ESE 6.9 mph - N/A   Clear
8:15 AM 64.4 °F 57.6 °F 78% 30.19 in 10.0 mi ESE 5.8 mph - N/A   Clear
8:35 AM 64.8 °F 57.4 °F 77% 30.20 in 10.0 mi ESE 8.1 mph - N/A   Scattered Clouds
8:55 AM 65.8 °F 58.1 °F 76% 30.21 in 10.0 mi ESE 4.6 mph - N/A   Scattered Clouds
9:15 AM 66.6 °F 58.1 °F 74% 30.21 in 10.0 mi SE 5.8 mph - N/A   Scattered Clouds
9:35 AM 67.1 °F 58.3 °F 73% 30.21 in 10.0 mi ESE 8.1 mph - N/A   Scattered Clouds
9:55 AM 67.5 °F 58.3 °F 72% 30.22 in 10.0 mi ESE 6.9 mph - N/A   Scattered Clouds
10:15 AM 66.0 °F 58.1 °F 76% 30.23 in 10.0 mi ESE 6.9 mph - N/A   Mostly Cloudy
10:35 AM 67.1 °F 58.5 °F 74% 30.22 in 10.0 mi East 8.1 mph - N/A   Overcast
10:55 AM 67.8 °F 58.6 °F 72% 30.23 in 10.0 mi East 10.4 mph - N/A   Overcast
11:15 AM 68.0 °F 59.0 °F 73% 30.22 in 10.0 mi East 9.2 mph - N/A   Overcast
11:35 AM 68.7 °F 59.0 °F 71% 30.21 in 10.0 mi East 12.7 mph - N/A   Mostly Cloudy
11:55 AM 69.1 °F 59.2 °F 71% 30.20 in 10.0 mi East 15.0 mph - N/A   Scattered Clouds
12:15 PM 70.0 °F 59.4 °F 69% 30.20 in 10.0 mi East 11.5 mph - N/A   Clear
12:35 PM 68.0 °F 59.0 °F 73% 30.19 in 10.0 mi ESE 16.1 mph 20.7 mph N/A   Mostly Cloudy
12:55 PM 68.5 °F 59.2 °F 72% 30.18 in 10.0 mi ESE 15.0 mph - N/A   Overcast
1:15 PM 69.1 °F 59.7 °F 72% 30.17 in 10.0 mi East 12.7 mph 16.1 mph N/A   Overcast
1:35 PM 68.4 °F 59.5 °F 73% 30.16 in 10.0 mi East 12.7 mph - N/A   Overcast
1:55 PM 70.2 °F 60.1 °F 70% 30.15 in 10.0 mi ESE 13.8 mph 17.3 mph N/A   Scattered Clouds
2:15 PM 68.9 °F 59.4 °F 72% 30.14 in 10.0 mi East 12.7 mph - N/A   Clear
2:35 PM 68.7 °F 59.4 °F 72% 30.14 in 10.0 mi ESE 15.0 mph 18.4 mph N/A   Clear
2:55 PM 68.5 °F 59.2 °F 72% 30.14 in 10.0 mi ESE 15.0 mph - N/A   Clear
3:15 PM 68.2 °F 59.2 °F 73% 30.14 in 10.0 mi ESE 13.8 mph - N/A   Clear
3:35 PM 67.8 °F 59.4 °F 74% 30.13 in 10.0 mi ESE 13.8 mph - N/A   Clear
3:55 PM 67.6 °F 59.5 °F 75% 30.13 in 10.0 mi ESE 11.5 mph - N/A   Clear
4:15 PM 67.8 °F 59.5 °F 75% 30.13 in 10.0 mi ESE 10.4 mph - N/A   Scattered Clouds
4:35 PM 67.3 °F 59.9 °F 77% 30.12 in 10.0 mi ESE 13.8 mph - N/A   Scattered Clouds
4:55 PM 67.1 °F 59.9 °F 78% 30.13 in 10.0 mi ESE 10.4 mph - N/A   Clear
5:15 PM 66.2 °F 59.9 °F 80% 30.12 in 10.0 mi ESE 11.5 mph - N/A   Scattered Clouds
5:35 PM 66.2 °F 59.9 °F 80% 30.12 in 10.0 mi ESE 12.7 mph - N/A   Clear
5:55 PM 65.3 °F 59.5 °F 82% 30.14 in 10.0 mi ESE 11.5 mph - N/A   Clear
7:35 PM 64.4 °F 59.4 °F 84% 30.14 in 10.0 mi ESE 11.5 mph - N/A   Clear
7:55 PM 64.4 °F 59.4 °F 84% 30.14 in 10.0 mi ESE 13.8 mph - N/A   Clear
8:15 PM 64.4 °F 59.4 °F 84% 30.14 in 10.0 mi ESE 12.7 mph - N/A   Clear
8:35 PM 64.2 °F 59.5 °F 85% 30.14 in 10.0 mi ESE 10.4 mph - N/A   Clear
8:55 PM 64.4 °F 59.9 °F 85% 30.14 in 10.0 mi ESE 11.5 mph - N/A   Clear
9:15 PM 64.4 °F 60.1 °F 86% 30.15 in 10.0 mi ESE 12.7 mph 17.3 mph N/A   Mostly Cloudy
9:35 PM 64.4 °F 60.3 °F 86% 30.15 in 10.0 mi ESE 8.1 mph - N/A   Mostly Cloudy
9:55 PM 64.2 °F 60.3 °F 87% 30.14 in 10.0 mi ESE 9.2 mph - N/A   Overcast
10:15 PM 64.2 °F 60.3 °F 87% 30.15 in 10.0 mi ESE 10.4 mph - N/A   Mostly Cloudy
10:35 PM 64.4 °F 60.3 °F 86% 30.15 in 10.0 mi ESE 9.2 mph - N/A   Overcast
10:55 PM 64.4 °F 60.8 °F 88% 30.15 in 10.0 mi SE 10.4 mph - N/A   Overcast
11:15 PM 64.2 °F 60.4 °F 87% 30.14 in 10.0 mi SE 9.2 mph - N/A   Scattered Clouds
11:35 PM 64.4 °F 60.8 °F 88% 30.13 in 10.0 mi ESE 10.4 mph - N/A   Scattered Clouds
11:55 PM 64.0 °F 60.8 °F 89% 30.12 in 10.0 mi ESE 9.2 mph - N/A   Scattered Clouds